EN

Hourly Weather Almenara

Today, 17 January, Sunday

Time Temperature Precipitation Wind Pressure Humidity
00:00 +5°C° 0 mm 1 mps 735 mmHg 52%
01:00 +5°C° 0 mm 1 mps 735 mmHg 52%
02:00 +5°C° 0 mm 1 mps 735 mmHg 52%
03:00 +5°C° 0 mm 1 mps 734 mmHg 52%
04:00 +5°C° 0 mm 1 mps 734 mmHg 51%
05:00 +4°C° 0 mm 1 mps 734 mmHg 50%
06:00 +4°C° 0 mm 1 mps 734 mmHg 50%
07:00 +6°C° 0 mm 1 mps 734 mmHg 49%
08:00 +7°C° 0 mm 1 mps 734 mmHg 47%
09:00 +9°C° 0 mm 1 mps 734 mmHg 46%
10:00 +11°C° 0 mm 1 mps 734 mmHg 42%
11:00 +13°C° 0 mm 1 mps 735 mmHg 37%
12:00 +15°C° 0 mm 2 mps 735 mmHg 33%
13:00 +15°C° 0 mm 1 mps 734 mmHg 33%
14:00 +16°C° 0 mm 1 mps 734 mmHg 33%
15:00 +16°C° 0 mm 1 mps 733 mmHg 33%
16:00 +14°C° 0 mm 1 mps 733 mmHg 39%
17:00 +12°C° 0 mm 1 mps 733 mmHg 45%
18:00 +9°C° 0 mm 1 mps 733 mmHg 51%
19:00 +9°C° 0 mm 1 mps 733 mmHg 49%
20:00 +8°C° 0 mm 1 mps 733 mmHg 47%
21:00 +7°C° 0 mm 2 mps 733 mmHg 45%
22:00 +7°C° 0 mm 2 mps 733 mmHg 45%
23:00 +6°C° 0 mm 2 mps 733 mmHg 44%

Tomorrow, 18 January, Monday

Time Temperature Precipitation Wind Pressure Humidity
00:00 +6°C° 0 mm 2 mps 733 mmHg 43%
01:00 +7°C° 0 mm 1 mps 733 mmHg 43%
02:00 +7°C° 0 mm 1 mps 733 mmHg 42%
03:00 +6°C° 0 mm 1 mps 732 mmHg 42%
04:00 +6°C° 0 mm 1 mps 732 mmHg 42%
05:00 +6°C° 0 mm 1 mps 732 mmHg 41%
06:00 +6°C° 0 mm 1 mps 732 mmHg 41%
07:00 +7°C° 0 mm 1 mps 733 mmHg 42%
08:00 +8°C° 0 mm 1 mps 733 mmHg 44%
09:00 +9°C° 0 mm 1 mps 733 mmHg 46%
10:00 +11°C° 0 mm 1 mps 733 mmHg 41%
11:00 +13°C° 0 mm 1 mps 734 mmHg 37%
12:00 +15°C° 0 mm 1 mps 734 mmHg 33%
13:00 +16°C° 0 mm 1 mps 733 mmHg 34%
14:00 +16°C° 0 mm 1 mps 733 mmHg 34%
15:00 +16°C° 0 mm 1 mps 732 mmHg 35%
16:00 +14°C° 0 mm 1 mps 732 mmHg 42%
17:00 +12°C° 0 mm 1 mps 732 mmHg 49%
18:00 +8°C° 0 mm 0 mps 732 mmHg 56%
19:00 +8°C° 0 mm 0 mps 732 mmHg 59%
20:00 +7°C° 0 mm 0 mps 732 mmHg 61%
21:00 +7°C° 0 mm 0 mps 733 mmHg 63%
22:00 +7°C° 0 mm 0 mps 733 mmHg 64%
23:00 +6°C° 0 mm 0 mps 733 mmHg 65%

Day after tomorrow, 19 January, Tuesday

Time Temperature Precipitation Wind Pressure Humidity
00:00 +6°C° 0 mm 0 mps 733 mmHg 65%
01:00 +6°C° 0 mm 0 mps 732 mmHg 67%
02:00 +5°C° 0 mm 0 mps 732 mmHg 69%
03:00 +5°C° 0 mm 0 mps 732 mmHg 70%
04:00 +5°C° 0 mm 0 mps 732 mmHg 71%
05:00 +4°C° 0 mm 0 mps 731 mmHg 72%
06:00 +4°C° 0 mm 0 mps 731 mmHg 73%
07:00 +6°C° 0 mm 0 mps 731 mmHg 69%
08:00 +7°C° 0 mm 0 mps 732 mmHg 65%
09:00 +8°C° 0 mm 0 mps 732 mmHg 61%
10:00 +11°C° 0 mm 1 mps 732 mmHg 55%
11:00 +12°C° 0 mm 1 mps 732 mmHg 50%
12:00 +14°C° 0 mm 1 mps 731 mmHg 44%
13:00 +14°C° 0 mm 1 mps 731 mmHg 45%
14:00 +14°C° 0 mm 2 mps 730 mmHg 46%
15:00 +14°C° 0 mm 2 mps 729 mmHg 46%
16:00 +12°C° 0 mm 1 mps 729 mmHg 55%
17:00 +10°C° 0 mm 1 mps 729 mmHg 64%
18:00 +7°C° 0 mm 0 mps 729 mmHg 74%
19:00 +8°C° 0 mm 1 mps 729 mmHg 74%
20:00 +7°C° 0 mm 1 mps 729 mmHg 74%
21:00 +7°C° 0 mm 1 mps 729 mmHg 74%
22:00 +7°C° 0 mm 1 mps 728 mmHg 75%
23:00 +6°C° 0 mm 0 mps 728 mmHg 77%

20 January, Wednesday

Time Temperature Precipitation Wind Pressure Humidity
00:00 +6°C° 0 mm 0 mps 728 mmHg 78%
01:00 +5°C° 0 mm 0 mps 727 mmHg 78%
02:00 +6°C° 0 mm 1 mps 727 mmHg 77%
03:00 +6°C° 0 mm 1 mps 726 mmHg 77%
04:00 +6°C° 0 mm 1 mps 726 mmHg 77%
05:00 +6°C° 0 mm 1 mps 725 mmHg 77%
06:00 +5°C° 0 mm 1 mps 725 mmHg 77%
07:00 +6°C° 0 mm 1 mps 725 mmHg 73%
08:00 +7°C° 0 mm 2 mps 724 mmHg 69%
09:00 +8°C° 0 mm 2 mps 724 mmHg 65%
10:00 +8°C° 0.3 mm 2 mps 724 mmHg 68%
11:00 +9°C° 0.3 mm 3 mps 724 mmHg 71%
12:00 +9°C° 0.3 mm 3 mps 723 mmHg 75%
13:00 +10°C° 0.5 mm 4 mps 723 mmHg 76%
14:00 +10°C° 0.5 mm 4 mps 722 mmHg 78%
15:00 +10°C° 0.5 mm 5 mps 722 mmHg 80%
16:00 +9°C° 0.2 mm 5 mps 722 mmHg 83%
17:00 +9°C° 0.2 mm 5 mps 722 mmHg 86%
18:00 +9°C° 0.2 mm 5 mps 723 mmHg 88%
19:00 +8°C° 0.2 mm 4 mps 723 mmHg 89%
20:00 +8°C° 0.2 mm 4 mps 724 mmHg 89%
21:00 +8°C° 0.2 mm 4 mps 724 mmHg 89%
22:00 +8°C° 0.4 mm 4 mps 725 mmHg 91%
23:00 +8°C° 0.4 mm 4 mps 725 mmHg 92%

21 January, Thursday

Time Temperature Precipitation Wind Pressure Humidity
00:00 +9°C° 0.4 mm 3 mps 725 mmHg 93%
01:00 +9°C° 0.2 mm 3 mps 725 mmHg 93%
02:00 +9°C° 0.2 mm 3 mps 726 mmHg 94%
03:00 +9°C° 0.2 mm 3 mps 726 mmHg 95%
04:00 +9°C° 0.1 mm 3 mps 726 mmHg 95%
05:00 +9°C° 0.1 mm 3 mps 726 mmHg 95%
06:00 +9°C° 0.1 mm 3 mps 727 mmHg 95%
07:00 +9°C° 0 mm 3 mps 727 mmHg 94%
08:00 +9°C° 0 mm 3 mps 727 mmHg 92%
09:00 +9°C° 0 mm 3 mps 728 mmHg 91%
10:00 +11°C° 0.1 mm 4 mps 728 mmHg 85%
11:00 +12°C° 0.1 mm 5 mps 728 mmHg 80%
12:00 +13°C° 0.1 mm 5 mps 728 mmHg 74%
13:00 +13°C° 0.1 mm 6 mps 727 mmHg 73%
14:00 +13°C° 0.1 mm 6 mps 727 mmHg 72%
15:00 +14°C° 0.1 mm 6 mps 727 mmHg 71%
16:00 +13°C° 0.1 mm 6 mps 727 mmHg 76%
17:00 +12°C° 0.1 mm 5 mps 727 mmHg 81%
18:00 +11°C° 0.1 mm 4 mps 726 mmHg 86%
19:00 +11°C° 0 mm 4 mps 726 mmHg 87%
20:00 +11°C° 0 mm 4 mps 726 mmHg 87%
21:00 +10°C° 0 mm 4 mps 726 mmHg 88%
22:00 +11°C° 0.1 mm 4 mps 726 mmHg 85%
23:00 +11°C° 0.1 mm 4 mps 726 mmHg 83%

22 January, Friday

Time Temperature Precipitation Wind Pressure Humidity
00:00 +11°C° 0.1 mm 4 mps 726 mmHg 81%
01:00 +11°C° 0.3 mm 4 mps 725 mmHg 83%
02:00 +11°C° 0.3 mm 4 mps 725 mmHg 85%
03:00 +11°C° 0.3 mm 4 mps 725 mmHg 87%
04:00 +11°C° 0.8 mm 4 mps 724 mmHg 89%
05:00 +12°C° 0.8 mm 4 mps 724 mmHg 92%
06:00 +12°C° 0.8 mm 5 mps 724 mmHg 94%
07:00 +12°C° 0.2 mm 5 mps 724 mmHg 93%
08:00 +13°C° 0.2 mm 6 mps 724 mmHg 91%
09:00 +13°C° 0.2 mm 6 mps 724 mmHg 90%
10:00 +12°C° 0.3 mm 7 mps 724 mmHg 86%
11:00 +12°C° 0.3 mm 8 mps 724 mmHg 82%
12:00 +13°C° 0.3 mm 9 mps 724 mmHg 78%
13:00 +13°C° 0.4 mm 9 mps 724 mmHg 73%
14:00 +13°C° 0.4 mm 9 mps 724 mmHg 69%
15:00 +13°C° 0.4 mm 10 mps 724 mmHg 65%
16:00 +11°C° 0.2 mm 8 mps 725 mmHg 69%
17:00 +10°C° 0.2 mm 7 mps 725 mmHg 73%
18:00 +9°C° 0.2 mm 5 mps 726 mmHg 78%
19:00 +8°C° 0 mm 5 mps 727 mmHg 80%
20:00 +7°C° 0 mm 5 mps 728 mmHg 83%
21:00 +7°C° 0 mm 5 mps 728 mmHg 86%
22:00 +6°C° 0 mm 4 mps 729 mmHg 87%
23:00 +6°C° 0 mm 4 mps 729 mmHg 89%
Show more